[[{"header":{"parameterUnit":"m.s-1","parameterCategory":2,"la1":30.2991,"la2":30.254,"lo1":-89.0895,"lo2":-89.0444,"dy":0.0017,"dx":0.0017,"nx":28,"ny":28,"refTime":"2025-04-11T09:00:00:Z","depth":"0","parameterNumber":2,"parameterNumberName":"U-component_of_CURRENTS"},"data":[0,0,0,0,0,0,0,0,0,0,0,0,0,0,0,0,0,0,0,0,0,0,0,0,0,0,0,0,0,0,0,0,0,0,0,0,0,0,0,0,0,0,0,0,0,0,0,0,0,0,0,0,0,0,0,0,0,0,0.2292,0.2296,0,0.2543,0.2545,0.2546,0.2551,0.2549,0.2548,0.2547,0.2476,0.2475,0.2474,0,0,0,0,0,0,0,0,0,0,0,0,0,0.2118,0.2117,0.2291,0.2296,0.2301,0.2543,0.2545,0.2546,0.2551,0.2549,0.2548,0.2546,0.2476,0.2475,0.2474,0,0,0,0,0,0,0,0,0,0,0,0,0,0.2244,0.2117,0.229,0.2347,0.2356,0.2543,0.2545,0.2547,0.2551,0.2549,0.2547,0.2545,0.2476,0.2475,0.2474,0.2509,0,0,0.2471,0.2471,0,0,0,0,0,0,0,0,0.2237,0.2248,0.2334,0.2344,0.2354,0.2531,0.2459,0.2525,0.2552,0.2456,0.2547,0.2544,0.2478,0.2477,0.2506,0.2506,0.2503,0.2471,0.2471,0.247,0.247,0,0,0,0,0,0,0,0.2227,0.2239,0.2371,0.234,0.2353,0.2466,0.2476,0.2473,0.2454,0.2465,0.247,0.253,0.2479,0.2507,0.2504,0.2502,0.2471,0.2471,0.247,0.247,0.2476,0.2477,0,0,0,0,0,0,0.2222,0.2229,0.2364,0.2381,0.2312,0.2471,0.2482,0.246,0.2462,0.2469,0.2532,0.253,0.251,0.2505,0.2501,0.2507,0.247,0.2469,0.2469,0.2476,0.2477,0.2477,0,0,0,0,0,0,0.2216,0.2228,0.2354,0.2332,0.2358,0.2475,0.2452,0.2467,0.2491,0.252,0.2516,0.2543,0.2508,0.2502,0.2494,0.2504,0.2469,0.2468,0.2475,0.2476,0.2477,0.2539,0,0,0,0,0,0,0.2208,0.2222,0.2198,0.2328,0.236,0.2456,0.2457,0.2474,0.2541,0.254,0.2528,0.2521,0.2506,0.2496,0.2493,0.2502,0.2467,0.2474,0.2475,0.2477,0.2536,0.2542,0.2547,0,0,0,0,0,0.2199,0.2191,0.2192,0.2212,0.232,0.246,0.2483,0.2551,0.2544,0.2559,0.2549,0.252,0.2502,0.2496,0.2493,0.2502,0.2473,0.2475,0.2476,0.2533,0.2541,0.2547,0,0,0,0,0,0,0.2125,0.2198,0.22,0.2214,0.2324,0.2467,0.2514,0.2554,0.2567,0.2548,0.2537,0.253,0.2531,0.2508,0.2501,0.2507,0.2481,0.2482,0.2525,0.2532,0.2537,0.2493,0.2467,0,0,0,0,0,0.2095,0.2081,0.2204,0.2219,0.2271,0.2383,0.2447,0.2495,0.2549,0.2554,0.255,0.2537,0.2543,0.2527,0.2527,0.2528,0.2507,0.2529,0.2535,0.2539,0.2501,0.2543,0.2549,0.2483,0.2483,0.2483,0,0,0.2088,0.212,0.2122,0.2202,0.2285,0.2352,0.2409,0.251,0.2534,0.254,0.2537,0.2561,0.2551,0.2561,0.2556,0.2534,0.2544,0.2542,0.2546,0.2504,0.2545,0.2552,0.2558,0.2484,0.2484,0.2484,0,0,0.2103,0.208,0.2096,0.2169,0.2295,0.2345,0.2369,0.2495,0.2508,0.2543,0.2553,0.2577,0.2574,0.258,0.2579,0.261,0.2585,0.2617,0.2596,0.2639,0.2645,0.265,0.2616,0.2617,0.2607,0.2607,0.2607,0,0.2088,0.21,0.214,0.2195,0.2245,0.2328,0.238,0.242,0.2516,0.2528,0.2529,0.2582,0.2576,0.2601,0.2608,0.262,0.262,0.2577,0.2648,0.2652,0.2655,0.262,0.2621,0.261,0.261,0.2609,0.2609,0,0.2119,0.2146,0.2179,0.2212,0.2263,0.2332,0.2398,0.2421,0.2438,0.2491,0.2534,0.2567,0.2593,0.2614,0.261,0.2646,0.2629,0.2667,0.2632,0.2666,0.2626,0.2625,0.2615,0.2614,0.2613,0.2612,0,0,0.2024,0.2166,0.2167,0.2194,0.2269,0.231,0.2328,0.2382,0.2386,0.2464,0.2482,0.2534,0.2583,0.2582,0.2622,0.2644,0.2672,0.2656,0.2657,0.2621,0.272,0.2535,0.2516,0.2747,0.2748,0.2748,0.2676,0,0.2032,0.211,0.2166,0.2212,0.2255,0.2303,0.2303,0.2346,0.238,0.2409,0.2476,0.251,0.2564,0.2587,0.2632,0.2659,0.2676,0.2683,0.2689,0.2686,0.252,0.2511,0.2426,0.234,0.2675,0.2675,0.2675,0,0.2012,0.2062,0.2117,0.219,0.2206,0.2223,0.2206,0.2241,0.2301,0.233,0.2409,0.2472,0.2517,0.2564,0.263,0.2641,0.2669,0.2691,0.2691,0.2484,0.25,0.2363,0.2326,0.2351,0.2673,0.2674,0.2674,0,0.1876,0.2006,0.202,0.2051,0.2145,0.2146,0.217,0.2214,0.2213,0.2291,0.2291,0.2408,0.2415,0.2516,0.2551,0.2609,0.2588,0.2684,0.2542,0.2528,0.2427,0.2401,0.2406,0.2727,0.2727,0.2727,0.2727,0,0.1822,0.1838,0.1965,0.1974,0.1959,0.2054,0.2029,0.2079,0.2125,0.2108,0.225,0.2235,0.2407,0.2427,0.2513,0.2468,0.2565,0.2494,0.2494,0.244,0.2417,0.2409,0.2418,0.2724,0.2725,0.2725,0.2726,0,0.1685,0.1778,0.1803,0.1893,0.1909,0.1887,0.193,0.192,0.1982,0.1961,0.1976,0.2073,0.2091,0.221,0.2305,0.2346,0.2295,0.2343,0.2209,0.2192,0.2078,0.2092,0.185,0.1813,0.2185,0.218,0.2175,0,0.1625,0.1634,0.17,0.1692,0.1738,0.1738,0.1731,0.1817,0.1812,0.184,0.181,0.1832,0.1824,0.1852,0.1931,0.1993,0.2059,0.194,0.2034,0.2001,0.2023,0.1939,0.1925,0.1937,0.1931,0.1926,0.1922,0,0.1508,0.1527,0.1551,0.1534,0.1531,0.152,0.1539,0.151,0.1588,0.1571,0.1534,0.1533,0.1541,0.1553,0.16,0.1659,0.1827,0.1836,0.1892,0.1853,0.1677,0.1666,0.2013,0.1879,0.1883,0.1887,0.1889,0.1891,0.1394,0.1373,0.1395,0.1365,0.1358,0.1315,0.1287,0.1305,0.1268,0.1276,0.1296,0.1288,0.1344,0.1389,0.1398,0.142,0.1455,0.1509,0.1532,0.1454,0.1381,0.1548,0.136,0.1361,0.1362,0.1363,0.1364,0,0.1249,0.1249,0.1224,0.1198,0.1146,0.1183,0.116,0.114,0.1089,0.1113,0.1096,0.1112,0.1114,0.119,0.1216,0.12,0.119,0.1221,0.1199,0.1216,0.1469,0.1429,0.1138,0.1138,0.1138,0.1138,0.1138,0.1138,0.1174,0.1116,0.1115,0.1003,0.0983,0.0923,0.0905,0.0897,0.092,0.0904,0.0922,0.0961,0.1049,0.1086,0.1111,0.1101,0.111,0.0957,0.1026,0.1358,0.1393,0.1425,0.1396,0.1102,0.1102,0.0744,0.0742,0.074]},{"header":{"parameterUnit":"m.s-1","parameterCategory":2,"la1":30.2991,"la2":30.254,"lo1":-89.0895,"lo2":-89.0444,"dy":0.0017,"dx":0.0017,"nx":28,"ny":28,"refTime":"2025-04-11T09:00:00:Z","depth":"0","parameterNumber":3,"parameterNumberName":"V-component_of_CURRENTS"},"data":[0,0,0,0,0,0,0,0,0,0,0,0,0,0,0,0,0,0,0,0,0,0,0,0,0,0,0,0,0,0,0,0,0,0,0,0,0,0,0,0,0,0,0,0,0,0,0,0,0,0,0,0,0,0,0,0,0,0,-0.0509,-0.0512,0,-0.067,-0.0671,-0.0672,-0.0677,-0.0676,-0.0675,-0.0674,-0.0629,-0.0629,-0.0629,0,0,0,0,0,0,0,0,0,0,0,0,0,-0.0434,-0.0433,-0.0509,-0.0512,-0.0515,-0.0669,-0.0671,-0.0672,-0.0677,-0.0676,-0.0675,-0.0674,-0.0629,-0.0629,-0.0629,0,0,0,0,0,0,0,0,0,0,0,0,0,-0.0508,-0.0433,-0.0508,-0.0543,-0.0548,-0.0669,-0.0671,-0.0672,-0.0678,-0.0676,-0.0674,-0.0673,-0.0629,-0.0629,-0.0629,-0.0661,0,0,-0.0628,-0.0628,0,0,0,0,0,0,0,0,-0.0504,-0.051,-0.0535,-0.0541,-0.0547,-0.066,-0.0629,-0.0661,-0.0678,-0.0619,-0.0674,-0.0672,-0.0628,-0.0628,-0.0651,-0.0658,-0.0657,-0.0628,-0.0628,-0.0628,-0.0628,0,0,0,0,0,0,0,-0.0498,-0.0505,-0.0563,-0.0538,-0.0546,-0.0629,-0.0634,-0.0636,-0.0619,-0.0624,-0.0627,-0.066,-0.0628,-0.0652,-0.065,-0.0656,-0.0628,-0.0628,-0.0628,-0.0628,-0.0556,-0.0554,0,0,0,0,0,0,-0.0487,-0.0498,-0.0558,-0.0569,-0.0531,-0.0631,-0.0637,-0.0618,-0.0624,-0.0628,-0.0661,-0.066,-0.0653,-0.065,-0.0648,-0.0582,-0.0628,-0.0628,-0.0628,-0.0557,-0.0555,-0.0553,0,0,0,0,0,0,-0.0483,-0.0488,-0.0552,-0.0548,-0.0563,-0.0633,-0.0612,-0.0622,-0.0638,-0.0657,-0.0654,-0.0668,-0.0651,-0.0648,-0.0626,-0.0584,-0.0628,-0.0627,-0.0559,-0.0557,-0.0554,-0.0517,0,0,0,0,0,0,-0.048,-0.0485,-0.0471,-0.0545,-0.0563,-0.0613,-0.0615,-0.0627,-0.0666,-0.0665,-0.0661,-0.0657,-0.065,-0.0627,-0.0626,-0.0584,-0.0627,-0.0562,-0.0558,-0.0555,-0.052,-0.0513,-0.0507,0,0,0,0,0,-0.0475,-0.0468,-0.0468,-0.0477,-0.0538,-0.0615,-0.063,-0.0672,-0.0668,-0.0677,-0.0661,-0.0656,-0.0604,-0.0626,-0.0626,-0.0583,-0.0563,-0.0559,-0.0555,-0.0523,-0.0514,-0.0507,0,0,0,0,0,0,-0.0432,-0.0471,-0.0472,-0.0474,-0.0535,-0.0618,-0.0651,-0.0672,-0.0675,-0.0662,-0.0655,-0.0649,-0.0611,-0.0606,-0.0631,-0.0549,-0.0575,-0.057,-0.055,-0.0542,-0.0535,-0.0514,-0.0627,0,0,0,0,0,-0.0416,-0.0411,-0.0475,-0.0479,-0.0509,-0.0575,-0.0614,-0.0638,-0.0662,-0.0664,-0.0658,-0.0632,-0.0599,-0.0578,-0.0564,-0.0535,-0.0543,-0.0498,-0.0491,-0.0486,-0.0465,-0.0465,-0.0457,-0.054,-0.054,-0.054,0,0,-0.0408,-0.0428,-0.0428,-0.0471,-0.0521,-0.0541,-0.0591,-0.0647,-0.0621,-0.0656,-0.0613,-0.0623,-0.059,-0.0547,-0.0526,-0.0533,-0.0466,-0.0481,-0.0477,-0.0459,-0.046,-0.0452,-0.0445,-0.0538,-0.0538,-0.0538,0,0,-0.041,-0.04,-0.041,-0.0448,-0.052,-0.0537,-0.0546,-0.0615,-0.0599,-0.0583,-0.0581,-0.0567,-0.0531,-0.05,-0.0473,-0.0422,-0.0442,-0.0413,-0.0353,-0.0353,-0.0347,-0.0341,-0.0348,-0.0344,-0.0398,-0.0398,-0.0398,0,-0.0394,-0.0391,-0.0434,-0.0458,-0.0467,-0.0519,-0.052,-0.0519,-0.0559,-0.0534,-0.0548,-0.0502,-0.0493,-0.0417,-0.0396,-0.0405,-0.042,-0.039,-0.0347,-0.0341,-0.0336,-0.0345,-0.034,-0.0396,-0.0396,-0.0397,-0.0397,0,-0.0406,-0.0403,-0.042,-0.0421,-0.0437,-0.0455,-0.0457,-0.044,-0.0422,-0.043,-0.038,-0.0388,-0.0356,-0.0348,-0.0352,-0.0301,-0.0329,-0.0353,-0.0373,-0.0326,-0.0338,-0.0334,-0.0393,-0.0394,-0.0394,-0.0395,0,0,-0.0346,-0.0406,-0.0405,-0.0389,-0.0405,-0.041,-0.0348,-0.0311,-0.0261,-0.0278,-0.0217,-0.0186,-0.023,-0.0203,-0.0223,-0.022,-0.0211,-0.0268,-0.0269,-0.0285,-0.0222,-0.0202,-0.0196,-0.0242,-0.024,-0.0239,-0.0249,0,-0.0326,-0.0332,-0.036,-0.0322,-0.0311,-0.0307,-0.0239,-0.0209,-0.0181,-0.0141,-0.0136,-0.0106,-0.0156,-0.0154,-0.0157,-0.0199,-0.0197,-0.0206,-0.0255,-0.0256,-0.0252,-0.0188,-0.0168,-0.0171,-0.0245,-0.0244,-0.0244,0,-0.0308,-0.0301,-0.0269,-0.0232,-0.0226,-0.0193,-0.0078,-0.0046,-0.0002,0.0014,0.0022,-0.0004,0.0013,-0.0048,-0.0078,-0.009,-0.0142,-0.0183,-0.0185,-0.017,-0.0226,-0.0226,-0.0161,-0.019,-0.0238,-0.0239,-0.0239,0,-0.0211,-0.0221,-0.0165,-0.016,-0.0135,-0.0082,-0.005,0.0002,0.0049,0.0089,0.0109,0.0107,0.0107,0.0052,-0.0031,-0.006,-0.0079,-0.013,-0.0155,-0.0156,-0.0145,-0.0145,-0.0117,-0.0143,-0.0143,-0.0143,-0.0143,0,-0.015,-0.0114,-0.0117,-0.0088,0.0004,-0.0011,0.0083,0.0114,0.0151,0.0197,0.0172,0.0207,0.0126,0.0097,0.0012,-0.0045,-0.0043,-0.012,-0.0143,-0.0131,-0.013,-0.0161,-0.0181,-0.0144,-0.0144,-0.0143,-0.0143,0,-0.0078,-0.0082,-0.0027,0.0016,0.0039,0.01,0.0145,0.0203,0.0222,0.0283,0.0296,0.0288,0.0251,0.0172,0.0085,0.0021,-0.0046,-0.007,-0.0049,-0.0067,-0.0113,-0.0132,-0.0072,-0.0094,-0.0089,-0.0089,-0.0088,0,-0.0046,-0.0011,0.0049,0.0092,0.0108,0.0177,0.0231,0.0254,0.0297,0.0331,0.037,0.0352,0.0347,0.0249,0.014,0.0034,-0.0016,-0.0014,-0.005,-0.0079,-0.0119,-0.0106,-0.013,-0.0034,-0.0033,-0.0032,-0.0031,0,0.0019,0.0041,0.0081,0.0161,0.0227,0.0289,0.0348,0.0394,0.0417,0.0455,0.0481,0.0471,0.0389,0.0309,0.0185,0.0099,0.0001,0.0,-0.0034,-0.0053,-0.0032,-0.0077,-0.0076,-0.0024,-0.0025,-0.0026,-0.0026,-0.0026,0.0067,0.0102,0.0153,0.0229,0.0298,0.0374,0.0426,0.0477,0.0534,0.0578,0.056,0.0563,0.0468,0.0304,0.0191,0.0053,0.0042,0.0,-0.0018,-0.0,-0.001,0.0018,0.0048,0.0047,0.0047,0.0047,0.0047,0,0.0117,0.0148,0.0216,0.0294,0.036,0.0392,0.0489,0.0536,0.0592,0.0643,0.0653,0.0635,0.0509,0.0365,0.0192,0.007,0.0007,0.0002,0.0009,-0.0018,-0.0,0.0012,0.0043,0.0043,0.0043,0.0043,0.0043,0.0043,0.0146,0.0204,0.0226,0.0326,0.0378,0.0468,0.0521,0.0596,0.0656,0.073,0.076,0.0765,0.0728,0.0426,0.0194,0.0092,-0.0001,-0.0002,-0.0057,-0.0068,-0.0071,-0.0073,-0.0065,-0.0052,-0.0052,-0.006,-0.006,-0.0061]}],[{"header":{"parameterUnit":"m.s-1","parameterCategory":2,"la1":30.2991,"la2":30.254,"lo1":-89.0895,"lo2":-89.0444,"dy":0.0017,"dx":0.0017,"nx":28,"ny":28,"refTime":"2025-04-11T09:00:00:Z","depth":"2","parameterNumber":2,"parameterNumberName":"U-component_of_CURRENTS"},"data":[0,0,0,0,0,0,0,0,0,0,0,0,0,0,0,0,0,0,0,0,0,0,0,0,0,0,0,0,0,0,0,0,0,0,0,0,0,0,0,0,0,0,0,0,0,0,0,0,0,0,0,0,0,0,0,0,0,0,0.167,0.1667,0,0.1473,0.1471,0.147,0.1511,0.1514,0.1517,0.1519,0.1728,0.1731,0.1733,0,0,0,0,0,0,0,0,0,0,0,0,0,0.1827,0.1826,0.167,0.1667,0.1664,0.1473,0.1471,0.1469,0.151,0.1514,0.1517,0.1521,0.1727,0.173,0.1734,0,0,0,0,0,0,0,0,0,0,0,0,0,0.1716,0.1826,0.1671,0.1655,0.1651,0.1473,0.1471,0.1469,0.151,0.1514,0.1518,0.1522,0.1726,0.173,0.1734,0.1675,0,0,0.1748,0.1749,0,0,0,0,0,0,0,0,0.1723,0.1712,0.166,0.1655,0.1651,0.1513,0.1602,0.1555,0.1509,0.1572,0.1519,0.1524,0.1685,0.1693,0.1653,0.1685,0.1694,0.1748,0.1751,0.1752,0.1754,0,0,0,0,0,0,0,0.1731,0.1719,0.1601,0.1656,0.165,0.1569,0.1562,0.1591,0.1622,0.1567,0.1568,0.153,0.1687,0.1648,0.1659,0.1697,0.1748,0.1752,0.1754,0.1756,0.1938,0.194,0,0,0,0,0,0,0.1746,0.1727,0.1607,0.1594,0.1688,0.1563,0.1555,0.156,0.1612,0.1618,0.1527,0.1533,0.1638,0.1654,0.1667,0.1852,0.1752,0.1756,0.1759,0.1936,0.1938,0.1941,0,0,0,0,0,0,0.1751,0.1739,0.1615,0.1646,0.1624,0.1557,0.1561,0.1554,0.159,0.1575,0.1593,0.1579,0.1642,0.1661,0.178,0.1853,0.1758,0.1762,0.1933,0.1937,0.194,0.2064,0,0,0,0,0,0,0.1757,0.1743,0.1711,0.1649,0.1623,0.1566,0.1556,0.1546,0.1551,0.156,0.1625,0.1642,0.1647,0.1773,0.1784,0.1857,0.1766,0.193,0.1935,0.1939,0.2057,0.2071,0.2084,0,0,0,0,0,0.1764,0.1736,0.1712,0.1694,0.1597,0.1566,0.1548,0.1516,0.1551,0.1568,0.1637,0.1645,0.1807,0.1779,0.1791,0.1867,0.1928,0.1933,0.1938,0.2051,0.2069,0.2083,0,0,0,0,0,0,0.1794,0.1733,0.1708,0.1664,0.1634,0.1572,0.1545,0.1554,0.1605,0.1647,0.1676,0.1699,0.1833,0.1822,0.179,0.1928,0.1867,0.1874,0.1949,0.1965,0.1978,0.1922,0.1769,0,0,0,0,0,0.1776,0.1741,0.1694,0.1656,0.1653,0.1614,0.1585,0.1595,0.1627,0.1653,0.1689,0.1751,0.1838,0.1888,0.1933,0.2004,0.1968,0.2058,0.2071,0.2082,0.2043,0.2092,0.2106,0.1957,0.1957,0.1957,0,0,0.1782,0.1726,0.1712,0.1655,0.163,0.1643,0.1617,0.1623,0.1657,0.1672,0.1748,0.1809,0.1871,0.1964,0.2019,0.1981,0.2104,0.2088,0.2098,0.2052,0.2099,0.2113,0.2126,0.1961,0.196,0.196,0,0,0.1795,0.174,0.1737,0.1742,0.1708,0.1668,0.1702,0.1691,0.1716,0.1787,0.183,0.1927,0.2014,0.206,0.2107,0.2212,0.2182,0.2247,0.2264,0.2316,0.2328,0.2338,0.23,0.2306,0.2243,0.2243,0.2243,0,0.1789,0.1787,0.1731,0.1764,0.1744,0.1715,0.1749,0.1763,0.1793,0.1816,0.1846,0.1993,0.2052,0.2182,0.2216,0.2244,0.2234,0.2211,0.2333,0.2342,0.235,0.2309,0.2314,0.225,0.2249,0.2248,0.2248,0,0.1827,0.1846,0.1861,0.1868,0.1843,0.1872,0.1876,0.1892,0.1911,0.1925,0.2053,0.212,0.2192,0.2254,0.2274,0.2374,0.2334,0.2358,0.2292,0.2373,0.2324,0.2327,0.2259,0.2257,0.2255,0.2253,0,0,0.1752,0.1862,0.1864,0.1889,0.1908,0.188,0.1945,0.1948,0.1983,0.2059,0.2107,0.2269,0.2283,0.233,0.238,0.2421,0.2482,0.2408,0.2408,0.2364,0.2536,0.2302,0.2281,0.2547,0.2549,0.255,0.2474,0,0.1785,0.1855,0.1889,0.1941,0.1968,0.1977,0.2004,0.2024,0.2051,0.2089,0.2196,0.2273,0.2327,0.2366,0.2433,0.2457,0.2496,0.2494,0.2464,0.246,0.2241,0.2279,0.2166,0.2071,0.2476,0.2476,0.2476,0,0.1777,0.1813,0.1881,0.1944,0.1954,0.1977,0.1946,0.1988,0.2066,0.2101,0.2208,0.2273,0.2356,0.2389,0.2478,0.2478,0.2506,0.2527,0.2526,0.225,0.2231,0.2058,0.206,0.248,0.248,0.2479,0.2479,0,0.1645,0.1782,0.1801,0.1842,0.1919,0.1932,0.1942,0.199,0.1993,0.2096,0.2099,0.2252,0.2266,0.2375,0.2392,0.2456,0.2433,0.2534,0.2353,0.2334,0.2191,0.2155,0.2603,0.2603,0.2603,0.2603,0.2604,0,0.1603,0.163,0.176,0.1778,0.1774,0.1854,0.1842,0.1893,0.1947,0.1937,0.2089,0.2085,0.2265,0.2275,0.2358,0.2289,0.2409,0.2317,0.2302,0.2225,0.2195,0.2514,0.2505,0.26,0.2601,0.2602,0.2602,0,0.1466,0.1566,0.1603,0.1703,0.1723,0.1708,0.1752,0.1751,0.1816,0.1802,0.1822,0.1923,0.1938,0.2047,0.2145,0.216,0.2176,0.2134,0.1963,0.1927,0.2066,0.2065,0.1965,0.1956,0.1948,0.1942,0.1937,0,0.1413,0.1425,0.1508,0.1508,0.1564,0.1573,0.1568,0.1655,0.1651,0.1679,0.1651,0.1674,0.1665,0.166,0.172,0.1762,0.1929,0.1636,0.1749,0.2006,0.2003,0.2013,0.2022,0.1625,0.1618,0.1612,0.1607,0,0.1309,0.1336,0.1364,0.1361,0.1368,0.1362,0.1386,0.1358,0.143,0.1415,0.1377,0.1376,0.1366,0.1333,0.1328,0.1376,0.1626,0.1506,0.1851,0.1767,0.167,0.1672,0.1696,0.1553,0.1559,0.1563,0.1566,0.1568,0.1215,0.1201,0.1226,0.1208,0.1207,0.1167,0.1144,0.1158,0.1118,0.111,0.113,0.1082,0.1117,0.1051,0.1038,0.1064,0.1226,0.1256,0.1284,0.1316,0.1253,0.1144,0.0914,0.0915,0.0917,0.0918,0.0919,0,0.1093,0.109,0.1073,0.1055,0.1005,0.1046,0.1021,0.099,0.0935,0.0915,0.0887,0.0772,0.0726,0.0785,0.074,0.0741,0.0865,0.0731,0.0918,0.0968,0.1013,0.0946,0.052,0.0519,0.0518,0.0517,0,0,0.1028,0.0974,0.097,0.0868,0.0854,0.0794,0.0776,0.0742,0.0723,0.0643,0.06,0.065,0.0686,0.0559,0.0575,0.0529,0.0756,0.0515,0.0832,0.1097,0.1141,0.13,0.1245,0,0,0,0,0]},{"header":{"parameterUnit":"m.s-1","parameterCategory":2,"la1":30.2991,"la2":30.254,"lo1":-89.0895,"lo2":-89.0444,"dy":0.0017,"dx":0.0017,"nx":28,"ny":28,"refTime":"2025-04-11T09:00:00:Z","depth":"2","parameterNumber":3,"parameterNumberName":"V-component_of_CURRENTS"},"data":[0,0,0,0,0,0,0,0,0,0,0,0,0,0,0,0,0,0,0,0,0,0,0,0,0,0,0,0,0,0,0,0,0,0,0,0,0,0,0,0,0,0,0,0,0,0,0,0,0,0,0,0,0,0,0,0,0,0,-0.0117,-0.0115,0,0.0054,0.0056,0.0057,0.0079,0.0078,0.0076,0.0075,-0.0072,-0.0075,-0.0077,0,0,0,0,0,0,0,0,0,0,0,0,0,-0.0247,-0.0246,-0.0117,-0.0115,-0.0112,0.0053,0.0056,0.0058,0.0079,0.0078,0.0076,0.0074,-0.0072,-0.0075,-0.0078,0,0,0,0,0,0,0,0,0,0,0,0,0,-0.0147,-0.0246,-0.0117,-0.008,-0.0075,0.0053,0.0056,0.0058,0.008,0.0078,0.0075,0.0073,-0.0071,-0.0074,-0.0078,-0.0058,0,0,-0.009,-0.0092,0,0,0,0,0,0,0,0,-0.0153,-0.0143,-0.0088,-0.0082,-0.0076,0.0045,-0.0044,0.0004,0.008,0.0019,0.0075,0.0072,-0.006,-0.0064,-0.0026,-0.0065,-0.0072,-0.009,-0.0093,-0.0094,-0.0095,0,0,0,0,0,0,0,-0.016,-0.0149,-0.0052,-0.0085,-0.0078,-0.0011,-0.0001,-0.0032,-0.0018,0.0024,0.0027,0.005,-0.006,-0.0022,-0.003,-0.0074,-0.009,-0.0094,-0.0096,-0.0097,-0.0151,-0.015,0,0,0,0,0,0,-0.0184,-0.0156,-0.0057,-0.0046,-0.0118,-0.0007,0.0004,0.0006,-0.0011,-0.0012,0.0051,0.005,-0.0014,-0.0026,-0.0036,-0.0094,-0.0094,-0.0098,-0.01,-0.0152,-0.0151,-0.015,0,0,0,0,0,0,-0.0187,-0.0177,-0.0064,-0.0094,-0.0075,-0.0004,-0.0,0.0011,0.0008,0.0014,0.0005,0.0031,-0.0017,-0.0031,-0.0087,-0.0098,-0.01,-0.0103,-0.0153,-0.0151,-0.015,-0.0161,0,0,0,0,0,0,-0.0192,-0.018,-0.0165,-0.0097,-0.0074,0.0009,0.0003,0.0016,0.0029,0.0027,-0.0006,-0.0018,-0.0019,-0.0081,-0.0091,-0.0103,-0.0106,-0.0154,-0.0152,-0.015,-0.0161,-0.016,-0.0158,0,0,0,0,0,-0.0198,-0.0179,-0.0166,-0.0152,-0.0064,0.001,0.0029,0.0072,0.0029,0.0052,0.0008,-0.0019,-0.0077,-0.0085,-0.0096,-0.0109,-0.0155,-0.0153,-0.0151,-0.0162,-0.016,-0.0158,0,0,0,0,0,0,-0.0215,-0.0173,-0.0157,-0.0123,-0.006,0.0014,0.0045,0.0046,0.0039,0.0001,-0.0024,-0.0036,-0.0086,-0.0091,-0.0099,-0.0112,-0.0114,-0.0114,-0.0118,-0.0117,-0.0115,-0.0089,-0.0109,0,0,0,0,0,-0.0213,-0.0199,-0.0135,-0.0102,-0.0085,-0.0035,-0.0001,0.0013,0.0016,0.0011,-0.0014,-0.0046,-0.0072,-0.0096,-0.011,-0.0133,-0.0132,-0.014,-0.0138,-0.0137,-0.0119,-0.0125,-0.0123,-0.0143,-0.0143,-0.0143,0,0,-0.0212,-0.018,-0.0171,-0.0104,-0.0065,-0.0034,-0.0022,0.0008,0.0028,-0.0013,-0.0024,-0.0058,-0.008,-0.0092,-0.0113,-0.0109,-0.0131,-0.0134,-0.0134,-0.0116,-0.0123,-0.0121,-0.0119,-0.0142,-0.0142,-0.0142,0,0,-0.0209,-0.018,-0.0175,-0.0148,-0.0096,-0.0042,-0.0053,-0.001,0.0007,-0.0001,-0.0031,-0.0068,-0.0099,-0.0095,-0.0108,-0.0108,-0.0131,-0.0121,-0.0092,-0.01,-0.0098,-0.0097,-0.0103,-0.0102,-0.0112,-0.0112,-0.0112,0,-0.02,-0.0187,-0.0151,-0.0153,-0.0111,-0.0068,-0.0045,-0.0015,0.0005,0.002,-0.0014,-0.0049,-0.0089,-0.0095,-0.0089,-0.0108,-0.0115,-0.0107,-0.01,-0.0099,-0.0097,-0.0103,-0.0102,-0.0112,-0.0112,-0.0112,-0.0112,0,-0.0208,-0.02,-0.0197,-0.0174,-0.0121,-0.0094,-0.0045,-0.0011,-0.0004,0.0015,0.0003,-0.0028,-0.0038,-0.0062,-0.0086,-0.0087,-0.0098,-0.0109,-0.0111,-0.0096,-0.0103,-0.0102,-0.0113,-0.0113,-0.0112,-0.0112,0,0,-0.0165,-0.0192,-0.019,-0.0168,-0.0132,-0.0071,-0.0039,0.0047,0.0067,0.0059,0.0088,0.0035,0.001,-0.0,-0.0033,-0.0046,-0.0064,-0.0074,-0.0074,-0.0089,-0.0082,-0.0056,-0.0053,-0.0085,-0.0085,-0.0084,-0.0095,0,-0.0158,-0.0151,-0.0162,-0.0114,-0.0082,-0.0041,0.0008,0.0064,0.0097,0.0128,0.0099,0.009,0.0037,0.0021,-0.0001,-0.0044,-0.0059,-0.0059,-0.0083,-0.0083,-0.0071,-0.0049,-0.0028,-0.0032,-0.0094,-0.0094,-0.0094,0,-0.0143,-0.0124,-0.0091,-0.0042,-0.0025,0.0006,0.0138,0.0167,0.0199,0.0209,0.0192,0.016,0.0141,0.0089,0.0036,0.0035,-0.0019,-0.0059,-0.006,-0.0025,-0.0054,-0.0053,-0.0028,-0.0092,-0.0093,-0.0093,-0.0093,0,-0.0053,-0.0057,-0.0,0.0001,0.0047,0.0092,0.0139,0.019,0.0233,0.0252,0.0266,0.0232,0.0219,0.0157,0.0076,0.0052,0.0018,-0.0022,-0.0046,-0.0046,-0.0021,-0.0018,-0.0058,-0.0058,-0.0058,-0.0058,-0.0058,0,-0.0003,0.0032,0.0036,0.006,0.0147,0.015,0.0232,0.0265,0.0293,0.0327,0.0297,0.0315,0.0231,0.0198,0.0113,0.0054,0.005,-0.0026,-0.0039,-0.0024,-0.0021,-0.0065,-0.0066,-0.0058,-0.0058,-0.0058,-0.0058,0,0.0067,0.0062,0.0115,0.0158,0.018,0.0237,0.0283,0.0331,0.0345,0.0392,0.0399,0.0386,0.0342,0.0265,0.0171,0.0113,0.0045,0.0018,0.0046,0.0037,-0.0028,-0.0029,-0.0005,-0.0004,-0.0003,-0.0002,-0.0002,0,0.0093,0.0127,0.0182,0.0221,0.0231,0.0296,0.0346,0.037,0.0406,0.0433,0.0462,0.0437,0.0422,0.0324,0.0219,0.0115,0.0071,0.0075,0.0038,-0.0003,-0.0019,-0.0021,-0.0023,0.0054,0.0055,0.0056,0.0056,0,0.0147,0.0161,0.0202,0.0274,0.033,0.039,0.0441,0.0483,0.0506,0.0536,0.0552,0.0535,0.0451,0.0369,0.0253,0.0174,0.0099,0.0089,0.0048,0.0045,0.0054,0.0038,0.0034,0.0064,0.0063,0.0063,0.0062,0.0062,0.0176,0.0206,0.0254,0.0322,0.0385,0.0454,0.0504,0.0549,0.0598,0.0633,0.0613,0.0598,0.0509,0.0365,0.0259,0.0151,0.0134,0.0094,0.009,0.0086,0.0103,0.0114,0.0138,0.0137,0.0137,0.0137,0.0137,0,0.0207,0.0238,0.0299,0.0371,0.0431,0.0463,0.0553,0.0598,0.0645,0.068,0.0683,0.0601,0.0514,0.0403,0.0258,0.0167,0.0129,0.0134,0.0113,0.0108,0.0103,0.0119,0.0158,0.0158,0.0157,0.0157,0,0,0.0227,0.0278,0.0301,0.0389,0.0437,0.0522,0.0571,0.0643,0.0691,0.0725,0.0722,0.0697,0.0565,0.0466,0.0341,0.0259,0.0197,0.0231,0.0228,0.0215,0.0211,0.0098,0.012,0,0,0,0,0]}],[{"header":{"parameterUnit":"m.s-1","parameterCategory":2,"la1":30.2991,"la2":30.254,"lo1":-89.0895,"lo2":-89.0444,"dy":0.0017,"dx":0.0017,"nx":28,"ny":28,"refTime":"2025-04-11T09:00:00:Z","depth":"4","parameterNumber":2,"parameterNumberName":"U-component_of_CURRENTS"},"data":[0,0,0,0,0,0,0,0,0,0,0,0,0,0,0,0,0,0,0,0,0,0,0,0,0,0,0,0,0,0,0,0,0,0,0,0,0,0,0,0,0,0,0,0,0,0,0,0,0,0,0,0,0,0,0,0,0,0,-0.0421,-0.0423,0,-0.0566,-0.0567,-0.0569,-0.0621,-0.0621,-0.0621,-0.0621,-0.0822,-0.0827,-0.0832,0,0,0,0,0,0,0,0,0,0,0,0,0,-0.0322,-0.0322,-0.0421,-0.0423,-0.0426,-0.0566,-0.0567,-0.0569,-0.0621,-0.0621,-0.0621,-0.0621,-0.082,-0.0827,-0.0833,0,0,0,0,0,0,0,0,0,0,0,0,0,-0.0399,-0.0322,-0.0421,-0.0473,-0.048,-0.0566,-0.0568,-0.0569,-0.0621,-0.0621,-0.0621,-0.0621,-0.0818,-0.0826,-0.0834,-0.088,0,0,-0.0858,-0.0861,0,0,0,0,0,0,0,0,-0.0394,-0.0402,-0.0463,-0.047,-0.0478,-0.0581,-0.0607,-0.0678,-0.0621,-0.0561,-0.0621,-0.0621,-0.0751,-0.0764,-0.0782,-0.089,-0.0898,-0.0859,-0.0863,-0.0867,-0.0869,0,0,0,0,0,0,0,-0.0389,-0.0397,-0.0472,-0.0466,-0.0475,-0.0536,-0.0545,-0.062,-0.065,-0.0566,-0.0572,-0.0598,-0.0754,-0.0774,-0.0787,-0.0901,-0.0858,-0.0865,-0.087,-0.0873,-0.0996,-0.0995,0,0,0,0,0,0,-0.0376,-0.0391,-0.0468,-0.0477,-0.0443,-0.0537,-0.0548,-0.0543,-0.0648,-0.0665,-0.0598,-0.06,-0.076,-0.0778,-0.0794,-0.0733,-0.0867,-0.0874,-0.0879,-0.0998,-0.0996,-0.0994,0,0,0,0,0,0,-0.0373,-0.038,-0.0462,-0.0445,-0.046,-0.0539,-0.0533,-0.0546,-0.0585,-0.0672,-0.069,-0.0627,-0.0761,-0.0783,-0.0888,-0.0746,-0.0878,-0.0885,-0.0999,-0.0997,-0.0995,-0.069,0,0,0,0,0,0,-0.0369,-0.0377,-0.0309,-0.0442,-0.0461,-0.053,-0.0534,-0.0549,-0.0603,-0.0607,-0.0703,-0.072,-0.0763,-0.0876,-0.0895,-0.076,-0.0891,-0.1001,-0.0998,-0.0996,-0.0702,-0.0678,-0.0657,0,0,0,0,0,-0.0364,-0.0356,-0.0304,-0.0312,-0.0383,-0.0532,-0.0547,-0.06,-0.0604,-0.0631,-0.0698,-0.0718,-0.0868,-0.0884,-0.0907,-0.0769,-0.1003,-0.0999,-0.0996,-0.0712,-0.0683,-0.0658,0,0,0,0,0,0,-0.0329,-0.0364,-0.0311,-0.0315,-0.0396,-0.0544,-0.0577,-0.0609,-0.068,-0.0684,-0.0752,-0.0776,-0.0797,-0.0869,-0.0884,-0.0803,-0.0917,-0.0919,-0.0693,-0.0667,-0.0645,-0.0573,-0.0898,0,0,0,0,0,-0.0264,-0.0209,-0.0317,-0.0297,-0.0363,-0.0452,-0.0497,-0.0547,-0.0655,-0.0685,-0.0737,-0.0784,-0.0797,-0.081,-0.0872,-0.0864,-0.0943,-0.0781,-0.0758,-0.0738,-0.0701,-0.0727,-0.0701,-0.0983,-0.0983,-0.0983,0,0,-0.0264,-0.0243,-0.0229,-0.0272,-0.0347,-0.0423,-0.0483,-0.0593,-0.0581,-0.0699,-0.0703,-0.0743,-0.0796,-0.0761,-0.0767,-0.08,-0.071,-0.0734,-0.0715,-0.0688,-0.0721,-0.0693,-0.0668,-0.0981,-0.0981,-0.0982,0,0,-0.0271,-0.0219,-0.0208,-0.0263,-0.0344,-0.0404,-0.0441,-0.0581,-0.0569,-0.0591,-0.0633,-0.0617,-0.0667,-0.0639,-0.0632,-0.0546,-0.0615,-0.0533,-0.0318,-0.0343,-0.0318,-0.0297,-0.0386,-0.0376,-0.0485,-0.0485,-0.0484,0,-0.0217,-0.021,-0.0245,-0.0272,-0.0268,-0.0401,-0.0428,-0.0472,-0.0586,-0.0521,-0.0563,-0.0532,-0.0582,-0.0476,-0.0391,-0.0478,-0.0532,-0.0397,-0.0305,-0.0286,-0.027,-0.0367,-0.0359,-0.047,-0.0471,-0.0473,-0.0474,0,-0.0253,-0.023,-0.0276,-0.0263,-0.0273,-0.0352,-0.0407,-0.0392,-0.0363,-0.036,-0.0264,-0.0321,-0.0262,-0.0245,-0.0264,-0.0125,-0.0219,-0.0293,-0.0351,-0.0221,-0.0335,-0.0332,-0.0448,-0.0453,-0.0458,-0.0462,0,0,-0.0111,-0.0254,-0.0231,-0.0206,-0.0252,-0.028,-0.0221,-0.0178,-0.008,-0.0112,0.0032,0.0088,0.0096,0.0101,0.0076,0.0098,0.0181,0.0015,0.0007,-0.0035,0.0101,0.015,0.0154,0.0149,0.0152,0.0154,-0.0032,0,-0.0081,-0.0137,-0.0141,-0.0121,-0.0183,-0.0144,-0.0041,0.002,0.0081,0.0153,0.0169,0.0223,0.021,0.0275,0.0316,0.0183,0.0208,0.0235,-0.0054,-0.0064,-0.0001,0.0168,0.0163,-0.0031,-0.003,-0.003,-0.003,0,-0.0041,-0.007,-0.008,-0.0,0.0004,0.0067,0.031,0.0374,0.0456,0.052,0.0598,0.0524,0.0575,0.0505,0.0433,0.0461,0.0355,0.0235,0.0222,0.0176,-0.0004,-0.0192,-0.0027,-0.0027,-0.0027,-0.0028,-0.0028,0,0.0101,0.0043,0.0078,0.0077,0.0097,0.0264,0.0362,0.0519,0.0583,0.0714,0.0727,0.0775,0.0742,0.0658,0.0499,0.0468,0.0352,0.0229,0.0152,0.0146,0.0015,-0.0006,0.0193,0.0194,0.0194,0.0195,0.0195,0,0.0193,0.022,0.0135,0.0163,0.0309,0.0383,0.0593,0.0734,0.082,0.0862,0.0904,0.0882,0.079,0.0688,0.0551,0.0406,0.0395,0.024,0.015,0.0135,0.0131,0.0013,-0.0005,0.0188,0.0189,0.019,0.0192,0,0.0303,0.0231,0.0249,0.0308,0.0346,0.0488,0.0612,0.0712,0.0855,0.0894,0.0904,0.0912,0.0833,0.0711,0.0532,0.045,0.029,0.0235,0.0241,0.0141,0.0056,0.0055,0.0087,0.0088,0.0089,0.009,0.0091,0,0.0312,0.031,0.0338,0.0359,0.0393,0.0519,0.0595,0.0731,0.0782,0.0871,0.0857,0.0821,0.0806,0.0589,0.0513,0.0307,0.0273,0.0202,0.0169,0.0162,0.0068,0.0064,0.0062,0.0092,0.0093,0.0093,0.0093,0,0.0336,0.0367,0.0378,0.0392,0.0464,0.0488,0.0602,0.0592,0.0738,0.0785,0.0785,0.0724,0.0654,0.0548,0.0479,0.0302,0.0267,0.0211,0.0204,0.0171,0.0168,0.0073,0.0069,0.0097,0.0096,0.0096,0.0096,0,0.0367,0.0367,0.0384,0.0417,0.0459,0.0487,0.0529,0.0554,0.0595,0.0688,0.0658,0.0642,0.0648,0.0539,0.0429,0.0356,0.0262,0.0194,0.0186,0.0181,0.031,0.0326,0.0283,0,0,0,0,0,0.0357,0.0359,0.0382,0.0418,0.0456,0.0482,0.0534,0.0556,0.0608,0.0595,0.0638,0.0575,0.0489,0.0457,0.0372,0.04,0.0247,0.0299,0.0163,0.0117,0.0113,0.0262,0,0,0,0,0,0,0.0348,0.0373,0.0368,0.0397,0.0412,0.0448,0.047,0.0504,0.05,0.0552,0.0494,0.0537,0.0437,0.0523,0.0361,0.0348,0.0245,0.028,0.0278,0.012,0.0116,0.0112,0.0264,0,0,0,0,0]},{"header":{"parameterUnit":"m.s-1","parameterCategory":2,"la1":30.2991,"la2":30.254,"lo1":-89.0895,"lo2":-89.0444,"dy":0.0017,"dx":0.0017,"nx":28,"ny":28,"refTime":"2025-04-11T09:00:00:Z","depth":"4","parameterNumber":3,"parameterNumberName":"V-component_of_CURRENTS"},"data":[0,0,0,0,0,0,0,0,0,0,0,0,0,0,0,0,0,0,0,0,0,0,0,0,0,0,0,0,0,0,0,0,0,0,0,0,0,0,0,0,0,0,0,0,0,0,0,0,0,0,0,0,0,0,0,0,0,0,0.0481,0.048,0,0.0444,0.0444,0.0444,0.0509,0.0511,0.0512,0.0514,0.0614,0.0615,0.0616,0,0,0,0,0,0,0,0,0,0,0,0,0,0.0514,0.0515,0.0481,0.048,0.0479,0.0444,0.0444,0.0444,0.0509,0.0511,0.0513,0.0515,0.0614,0.0615,0.0616,0,0,0,0,0,0,0,0,0,0,0,0,0,0.0496,0.0515,0.0481,0.0504,0.0505,0.0444,0.0444,0.0444,0.0508,0.0511,0.0513,0.0516,0.0613,0.0615,0.0617,0.0574,0,0,0.0621,0.0622,0,0,0,0,0,0,0,0,0.0497,0.0495,0.0501,0.0502,0.0503,0.0479,0.0492,0.0492,0.0507,0.0512,0.0514,0.0517,0.0577,0.0581,0.0574,0.0579,0.0583,0.0622,0.0623,0.0623,0.0624,0,0,0,0,0,0,0,0.0498,0.0497,0.0472,0.05,0.0501,0.0483,0.0484,0.0491,0.0537,0.0512,0.0515,0.0502,0.0579,0.0572,0.0577,0.0585,0.0621,0.0623,0.0624,0.0624,0.0687,0.0687,0,0,0,0,0,0,0.0495,0.0498,0.0473,0.047,0.0501,0.048,0.0482,0.0488,0.0534,0.0541,0.05,0.0505,0.0568,0.0575,0.0581,0.0649,0.0623,0.0625,0.0626,0.0686,0.0687,0.0688,0,0,0,0,0,0,0.0496,0.0493,0.0474,0.0478,0.0474,0.0477,0.0483,0.0486,0.0522,0.0522,0.0534,0.0538,0.057,0.0579,0.0614,0.0649,0.0625,0.0627,0.0685,0.0686,0.0687,0.0711,0,0,0,0,0,0,0.0497,0.0495,0.0494,0.0478,0.0473,0.0451,0.048,0.0483,0.0505,0.0513,0.0557,0.0566,0.0573,0.0612,0.0616,0.0651,0.0628,0.0684,0.0686,0.0687,0.0709,0.0713,0.0715,0,0,0,0,0,0.0499,0.0502,0.0495,0.0491,0.0475,0.045,0.0447,0.046,0.0505,0.0508,0.0547,0.0567,0.0624,0.0612,0.0617,0.0654,0.0684,0.0685,0.0687,0.0708,0.0712,0.0715,0,0,0,0,0,0,0.052,0.0507,0.05,0.05,0.0475,0.046,0.0454,0.0479,0.0509,0.0566,0.0564,0.0574,0.062,0.0627,0.0615,0.0676,0.0662,0.0664,0.0676,0.068,0.0683,0.0712,0.0629,0,0,0,0,0,0.0517,0.0515,0.0492,0.0485,0.0475,0.0472,0.0467,0.0513,0.0531,0.0551,0.0585,0.0623,0.0618,0.0644,0.0657,0.0685,0.0649,0.0715,0.0718,0.0721,0.0747,0.0658,0.0655,0.0693,0.0693,0.0693,0,0,0.0526,0.0508,0.0512,0.0486,0.047,0.0502,0.0479,0.052,0.0574,0.0558,0.0651,0.064,0.0626,0.0657,0.068,0.0677,0.0695,0.0723,0.0725,0.075,0.0659,0.0655,0.0652,0.0694,0.0694,0.0693,0,0,0.054,0.0521,0.0531,0.0534,0.054,0.0546,0.0569,0.0607,0.0637,0.0703,0.0696,0.0697,0.0742,0.0712,0.0699,0.0725,0.0707,0.0752,0.0801,0.0714,0.0709,0.0705,0.0666,0.0658,0.0761,0.0761,0.0761,0,0.0536,0.0569,0.0525,0.0554,0.0568,0.0579,0.0633,0.0654,0.072,0.0723,0.076,0.0764,0.076,0.0723,0.0745,0.0733,0.0701,0.0783,0.0715,0.071,0.0705,0.0666,0.0656,0.0762,0.0762,0.0762,0.0762,0,0.0578,0.0621,0.0625,0.0666,0.067,0.0726,0.0751,0.0796,0.0849,0.0864,0.0874,0.0846,0.0831,0.0829,0.0806,0.0768,0.0762,0.0717,0.07,0.0702,0.0662,0.0651,0.0764,0.0764,0.0763,0.0763,0,0,0.0513,0.0633,0.0636,0.0682,0.0761,0.0761,0.0842,0.0856,0.0868,0.0947,0.0928,0.0929,0.0906,0.089,0.0841,0.0792,0.0727,0.0767,0.0761,0.0722,0.0573,0.0553,0.0539,0.0664,0.0662,0.0661,0.0561,0,0.0547,0.0634,0.0695,0.0795,0.0837,0.0886,0.0912,0.0951,0.0963,0.0954,0.0928,0.0899,0.0925,0.0891,0.0856,0.0737,0.0702,0.0762,0.0585,0.0582,0.0555,0.0527,0.0655,0.0554,0.0551,0.055,0.0548,0,0.0554,0.0616,0.0717,0.0831,0.0845,0.0918,0.0924,0.0948,0.0933,0.0933,0.0929,0.0912,0.0862,0.0863,0.0736,0.0776,0.0706,0.0634,0.0626,0.0597,0.0541,0.0549,0.0529,0.0531,0.0532,0.0534,0.0535,0,0.047,0.0623,0.0695,0.0745,0.0867,0.0911,0.0946,0.0944,0.0917,0.0888,0.0875,0.0846,0.0786,0.0726,0.0649,0.0677,0.0495,0.0484,0.0413,0.0411,0.045,0.0455,0.0396,0.0397,0.0397,0.0397,0.0397,0,0.0464,0.0532,0.0674,0.0721,0.0778,0.0855,0.0861,0.0879,0.0858,0.0811,0.0837,0.0793,0.0746,0.0669,0.0622,0.0493,0.0466,0.0429,0.0375,0.0466,0.0474,0.0443,0.0449,0.0393,0.0394,0.0395,0.0395,0,0.0392,0.0483,0.0567,0.0707,0.075,0.0763,0.0834,0.0813,0.0796,0.0734,0.0728,0.0709,0.0612,0.0573,0.0424,0.0415,0.0304,0.0262,0.0391,0.0344,0.0301,0.031,0.0187,0.0185,0.0184,0.0182,0.0181,0,0.0383,0.0414,0.0527,0.056,0.0652,0.0696,0.0718,0.0756,0.0736,0.068,0.0649,0.0573,0.0561,0.036,0.0315,0.0218,0.0211,0.0181,0.0255,0.0315,0.0274,0.0286,0.0297,0.0179,0.0179,0.0178,0.0178,0,0.0367,0.0379,0.0442,0.0497,0.0557,0.0597,0.0656,0.0641,0.0641,0.0634,0.0566,0.0521,0.0401,0.0328,0.0242,0.0179,0.0219,0.0165,0.017,0.024,0.0304,0.0268,0.028,0.0173,0.0173,0.0174,0.0174,0,0.0334,0.0348,0.0396,0.0451,0.0493,0.0526,0.0559,0.0585,0.0567,0.0552,0.0514,0.0439,0.0398,0.03,0.0218,0.0159,0.0168,0.0187,0.019,0.0195,0.0241,0.0327,0.0153,0,0,0,0,0,0.0316,0.0331,0.0366,0.0418,0.0449,0.0489,0.0533,0.0557,0.0573,0.052,0.0527,0.0433,0.0329,0.0279,0.0213,0.0195,0.0157,0.0119,0.018,0.0144,0.015,0.0202,0,0,0,0,0,0,0.0301,0.0326,0.0351,0.0381,0.0411,0.0453,0.0485,0.0504,0.0487,0.0491,0.0428,0.0421,0.0308,0.0351,0.0205,0.0188,0.0223,0.0072,0.0072,0.014,0.0146,0.0151,0.0206,0,0,0,0,0]}]]